Observations for Trim Market St
| Time | AQI | Temp °C | Hum % | Pres Pa | CO μg/m³ | H₂S μg/m³ | NO μg/m³ | NO₂ μg/m³ | O₃ μg/m³ | SO₂ μg/m³ | PM1 μg/m³ | PM2.5 μg/m³ | PM10 μg/m³ |
|---|---|---|---|---|---|---|---|---|---|---|---|---|---|
| Saturday 22 August 2026 | |||||||||||||
| 16:59 | 2 | 23 | 40 | 65,501 | 0.13 | 0 | 1.54 | 39.66 | 62.92 | 0 | 3.56 | 8.19 | 11.56 |
| 16:58 | 2 | 23 | 40 | 65,509 | 0.05 | 0 | 1.55 | 40.1 | 54.51 | 0 | 2.14 | 5.01 | 5.11 |
| 16:57 | 2 | 23 | 40 | 65,519 | 0.17 | 0 | 1.55 | 39.67 | 61.02 | 0 | 2.85 | 7.65 | 10.75 |
| 16:56 | 2 | 23 | 40 | 65,532 | 0.17 | 0 | 1.56 | 36.39 | 57.25 | 0 | 4.28 | 9.23 | 13.17 |
| 16:55 | 2 | 23 | 40 | 65,523 | 0.46 | 0 | 1.67 | 37.62 | 59.73 | 0 | 6.41 | 10.82 | 13.97 |
| 16:54 | 2 | 23 | 40 | 65,511 | 0.22 | 0 | 1.66 | 35.2 | 57.95 | 0 | 6.41 | 14.01 | 19.63 |
| 16:53 | 2 | 23 | 40 | 65,523 | 0.01 | 0 | 1.72 | 39.71 | 56.4 | 0 | 2.85 | 8.72 | 13.99 |
| 16:52 | 2 | 23 | 40 | 65,511 | 0.41 | 0 | 1.64 | 12.05 | 67.71 | 0 | 3.56 | 8.19 | 10.76 |
| 16:51 | 2 | 23 | 40 | 65,525 | 2.43 | 0 | 1.64 | 20.69 | 63.27 | 0 | 3.56 | 10.84 | 14.79 |
| 16:50 | 2 | 23 | 40 | 65,538 | 0.09 | 0 | 1.63 | 12.04 | 68.64 | 0 | 2.85 | 8.2 | 13.18 |
| 16:49 | 2 | 23 | 39 | 65,558 | 0 | 0 | 1.38 | 28.67 | 60.7 | 0 | 4.28 | 10.33 | 13.19 |
| 16:47 | 2 | 23 | 39 | 65,560 | 0 | 0 | 1.28 | 10.33 | 68.83 | 0 | 3.56 | 9.27 | 14 |
| 16:45 | 2 | 23 | 39 | 65,564 | 0.02 | 0 | 1.34 | 14.64 | 66.74 | 0 | 4.28 | 8.76 | 10.77 |
| 16:44 | 2 | 23.1 | 39 | 65,568 | 0.01 | 0 | 1.65 | 21.65 | 64.55 | 0 | 3.56 | 8.23 | 9.96 |
| 16:43 | 2 | 23.1 | 39 | 65,568 | 0.03 | 0 | 1.72 | 14.28 | 68.07 | 0 | 2.85 | 8.23 | 10.77 |
| 16:41 | 2 | 23.1 | 39 | 65,536 | 0.24 | 0 | 1.72 | 29.09 | 64.55 | 0 | 4.99 | 9.29 | 13.2 |
| 16:38 | 2 | 23.2 | 39 | 65,536 | 0.24 | 0 | 1.22 | 25.74 | 64.25 | 0 | 5.7 | 9.83 | 14.02 |
| 16:37 | 2 | 23.2 | 39 | 65,554 | 0.2 | 0 | 1.18 | 14.07 | 114.17 | 0 | 4.28 | 8.24 | 12.4 |
| 16:36 | 2 | 23.3 | 39 | 65,552 | 0.02 | 0 | 1.08 | 10.55 | 86.29 | 0 | 2.85 | 8.24 | 9.96 |
| 16:35 | 2 | 23.3 | 39 | 65,580 | 0 | 0 | 1.3 | 7.7 | 70.21 | 0 | 3.56 | 8.23 | 10.77 |